STARLINK-1735, 46565

Orbit data source: Space-Track

STARLINK-1735, 46565 is a payload satellite owned by SpaceX/Seattle (US) in LEO that was launched on Tue, 06 Oct 2020 UTC via an FALCON 9 launch vehicle from the Air Force Eastern Test Range (AFETR). Payloads include a variety of satellites, spacecraft, and rockets equipped with specific instruments for various scientific and technological missions. These include communications satellites like Starlink; space stations such as the ISS; scientific satellites like the Hubble; Earth observation satellites from companies like Planet Labs, Umbra, and HawkEye 360; GPS; miniature CubeSats for education and research; and military/defense satellites.

Loading next visibility...
STARLINK-1735 details
Identifier
46565, 2020-070AK
Orbit
LEO
Last TLE update1 day ago
Origin
Flag of USSpaceX/Seattle (US)
ManufacturerSpaceX/Seattle
MissionOperational Commercial Communications
Bus & MotorSTARLINK, Unknown motor
Mass260 kg wet, ~248 kg dry
Launch date (UTC)
2020-10-06 (4 years ago)
Launch vehicle
FALCON 9
Launch site
Air Force Eastern Test Range (AFETR)
Object type
Payload
Rocket body
Debris
Shape & HBRBox + 1 Pan, 8.86 m
Radar Cross Section13.562 m², Large (>1 m²)

Expand to show TLE details & history

TLE from 1 day ago
0 STARLINK-1735
1 46565U 20070AK  24360.22212765  .00025172  00000-0  17043-2 0  9991
2 46565  53.0557 329.4659 0001324  88.7045 271.4095 15.06365874233240
Epoch: 2024-12-25T05:19Z
Definitive object data (Epoch: 2024-12-25T05:19:51.828Z)
Latitude-0.0001°
Longitude155.2809°
Altitude548.173 km
Speed7.589 km/s
True Right ascension21h 57m 51s
True Declination0° 00' 00"
Sunlit
Object was in daylight at TLE epoch
Visualization TLE readout
Latitude35.39315°
Longitude-178.02114°
Altitude549.14 km
Speed7.592 km/s
Apparent Right ascension22h 43m 39s
Apparent Declination0° 26' 56"
Sunlit
Object is in daylight
Visualization observer readout
Local Sidereal Time09:32:58
Azimuth333.371° NNW
Elevation-47.375°
Doppler factor1
Orbital elements
Apogee altitude548.504 km
Perigee altitude546.67 km
Semi-major axis6,925.724 km
Eccentricity0.0001324
Inclination53.0557°
RAAN329.4659°
Arg. of periapsis88.7045°
True anomaly271.39433°
Mean anomaly271.4095°
Eccentric anomaly271.40192°
Mean motion3.7657 °/min
BSTAR0.0017043
Orbital period95.6 mins
Loading maneuver chart data...
Loading historical data...
Loading historical data...
Loading historical data...
Loading historical data...
Loading historical data...
Loading historical data...
Loading historical data...

STARLINK-1735 Visibility forecast

Observer location: undefined°, undefined

Span
Click to sort rows by Start time (UTC) header in descending order
Start Az.
Max El. time (UTC)
Max El. Az.
Max El.
End time (UTC)
End Az.
6 mins2024-12-27 00:30:49.630Z225.462° WSW2024-12-27 00:33:49.630Z65.769° ENE43.022°2024-12-27 00:36:49.630Z51.767° ENE
4 mins2024-12-27 02:11:49.630Z307.477° NW2024-12-27 02:12:49.630Z326.984° NNW20.137°2024-12-27 02:15:49.630Z22.402° NNE
4 mins2024-12-27 05:33:49.630Z359.559° N2024-12-27 05:34:49.630Z19.454° NNE18.965°2024-12-27 05:37:49.630Z68.197° E
6 mins2024-12-27 07:12:49.630Z313.997° NW2024-12-27 07:14:49.630Z14.641° NNE44.645°2024-12-27 07:18:49.630Z127.504° SE
|